Location: Groß Eilstorf
(52.8200°N, 9.4552°E)
Time: 10:56:36
(UTC+00:00)

Meteor 2-10 - Pass Details

Date: 15 May 2026
Orbit: 737 x 865 km, 81.2° (Epoch: 6 June)

Event Time Altitude Azimuth Distance (km) Brightness Sun altitude
Rises 20:29:36 0° 347° (NNW) 3,454 8.6 -9.4°
Reaches altitude 10° 20:32:04 10° 351° (N) 2,518 7.7 -9.6°
Maximum altitude 20:37:47 65° 73° (ENE) 949 4.4 -10.2°
Enters shadow 20:42:50 13° 154° (SSE) 2,266 5.8 -10.6°
